Lid_Strength_Index
8 8 8 8 8 8 8 7 7 7 6 6 5 4 4 4 3 2 3 3 3 3 3 4 4 3 3 2 2 3 4 4 5 4 4 4 5 5 5 6 6 8 8
8 8 8 8 8 8 8 8 8 8 7 7 7 7 7 7 6 6 6 5 5 5 5 5 4 4 5 4 4 4 4 4 5 6 5 6 6 7 7 8 7 7 8
9 9 9 9 9 9 9 8 8 8 8 8 8 8 8 8 7 7 7 6 6 6 6 6 6 6 6 6 5 6 6 5 6 7 7 7 8 8 9 8 8 8 7
8 9 9 9 9 9 9 8 8 8 8 8 7 7 7 7 8 8 7 7 6 6 6 6 6 6 7 7 7 7 7 7 8 8 9 9 8 8 9 10 10 9 9
8 9 9 9 9 9 9 9 8 8 8 8 8 7 7 8 8 8 8 8 7 7 7 7 7 8 9 8 8 8 7 8 8 9 9 9 9 11 10 10 10 10 10
8 9 8 9 9 9 9 9 9 8 8 8 8 8 8 8 8 8 8 8 8 7 8 7 7 9 8 8 8 8 8 8 8 8 9 9 9 9 9 10 11 13 13
9 9 9 9 9 9 9 9 9 9 8 8 8 8 8 8 7 8 9 9 8 8 8 8 8 8 9 8 7 7 8 8 6 7 9 9 9 9 9 10 10 10 10
9 9 10 10 10 10 10 10 10 9 9 9 9 9 8 8 8 8 8 8 8 8 8 8 9 8 8 8 8 9 8 8 7 7 8 8 8 8 8 8 9 9 9
10 10 11 11 10 11 11 11 10 10 10 10 10 9 9 9 8 7 8 9 9 9 8 8 9 9 8 7 9 9 9 8 7 7 6 6 6 6 7 7 10 10 11
10 11 11 11 11 11 11 11 11 10 11 11 10 10 11 11 8 8 8 9 10 10 10 9 8 9 7 7 9 9 10 9 8 8 7 6 6 7 7 8 9 11 11
11 11 11 11 11 11 11 11 11 11 11 11 11 11 11 11 10 8 7 9 11 11 11 10 9 7 7 7 7 7 7 7 7 7 8 7 8 9 9 9 10 10 12
12 12 13 13 12 11 13 11 12 11 12 12 12 11 11 10 9 8 7 7 7 10 9 9 8 7 7 7 8 8 7 8 8 8 8 10 11 11 11 11 10 10 10
15 15 14 14 12 12 13 12 13 13 13 12 12 13 12 11 11 8 8 8 8 9 8 8 7 8 8 9 9 9 10 10 9 10 11 11 11 11 11 13 12 12 12
16 16 15 15 14 14 13 12 14 14 14 13 13 14 13 12 10 9 9 9 9 8 8 8 8 8 9 10 12 10 11 11 12 13 13 14 14 14 15 14 15 15 17
16 16 15 14 15 14 13 13 12 12 12 15 13 14 16 14 10 8 9 10 10 9 9 9 10 10 10 10 13 13 13 14 14 16 16 16 15 16 18 19 19 22 21
16 15 15 15 15 15 15 15 9 9 9 9 8 11 10 9 9 9 9 9 9 9 10 10 11 12 15 16 16 18 17 18 17 16 18 19 21 21 21 21 22 23 23
20 16 16 16 15 16 16 16 16 13 9 9 9 9 9 9 10 10 10 10 9 9 11 15 16 17 18 19 20 19 20 19 19 20 21 22 21 23 22 22 23 25 25
23 19 20 18 18 18 17 17 18 18 18 17 10 11 9 10 10 10 9 11 18 17 18 20 20 20 20 20 20 21 22 21 22 22 23 25 23 25 25 25 25 27 27
22 19 20 20 20 20 19 19 19 20 20 20 19 13 12 11 11 11 11 19 17 21 23 21 23 22 23 24 24 25 26 26 26 26 26 26 26 27 27 27 25 24 25
19 19 18 19 20 20 20 20 20 17 15 14 15 16 19 17 19 22 22 23 23 24 24 25 25 25 25 25 24 25 24 25 26 26 27 27 26 27 26 26 25 26 27
20 18 16 17 15 14 13 13 13 14 15 16 16 16 12 17 20 22 23 23 24 25 25 25 26 26 26 25 25 26 27 27 28 27 27 28 28 26 27 27 26 25 27
21 19 19 19 18 17 17 15 16 17 17 17 19 17 13 21 19 21 25 25 26 25 26 25 26 28 28 27 27 27 28 28 29 29 28 28 27 25 27 28 28 28 29
22 20 19 18 19 18 18 17 18 16 17 18 20 20 22 22 20 23 25 26 25 25 26 27 28 28 29 28 29 29 27 29 29 31 29 29 28 28 29 29 30 30 30
26 25 24 23 23 24 22 22 21 20 20 20 21 21 21 22 21 23 23 22 24 27 29 29 30 29 30 30 30 31 31 31 32 31 30 29 29 30 30 31 31 31 30
27 27 27 26 26 25 24 23 22 21 21 22 21 22 22 21 22 22 23 23 25 29 30 30 30 30 30 30 30 31 27 29 30 27 29 30 29 31 33 32 32 31 28
28 28 28 27 26 25 24 23 22 23 22 23 22 23 23 23 22 23 24 25 29 30 30 30 30 29 28 28 29 25 20 21 26 25 29 29 28 31 32 32 31 31 32